Weather History for Los Alamos, NM

Change the Weather History Date:

Tuesday, January 1, 2013

  Actual Average Record
Temperature  
Mean Temperature 20 °F -  
Max Temperature 25 °F 35 °F 55 °F (1997)
Min Temperature 15 °F 15 °F -5 °F (1979)
Degree Days  
Heating Degree Days 45    
Moisture  
Dew Point 15 °F    
Average Humidity 79    
Maximum Humidity 99    
Minimum Humidity 64    
Precipitation  
Precipitation 0.00 in - - ()
Sea Level Pressure  
Sea Level Pressure 30.08 in    
Wind  
Wind Speed 0 mph (East)    
Max Wind Speed 6 mph    
Max Gust Speed -    
Visibility 9 miles    
Events Snow    
Averages and records for this station are not official NWS values.
T = Trace of Precipitation, MM = Missing Value Source: NWS Daily Summary

Daily Weather History Graph

Daily Weather History Graph

Search for Another Location

Airport:

Trip Planner

Search our weather history database for the weather conditions in past years. The results will help you decide how hot, cold, wet, or windy it might be!

Date:

Astronomy

Jan. 01, 2013 Rise Set
Actual Time 7:15 AM MST 5:02 PM MST
Civil Twilight 6:47 AM MST 5:30 PM MST
Nautical Twilight 6:15 AM MST 6:02 PM MST
Astronomical Twilight 5:44 AM MST 6:33 PM MST
Moon 9:26 PM MST (1/1) 9:37 AM MST (1/1)
Length of Visible Light 10h 43m
Length of Day
9h 46m
Waning Gibbous, 83% of the Moon is Illuminated
Jan 1
Waning Gibbous
Jan 4
Last Quarter
Jan 11
New
Jan 18
First Quarter
Jan 26
Full

Hourly Weather History & Observations

Time (MST) Temp. Windchill Dew Point Humidity Pressure Visibility Wind Dir Wind Speed Gust Speed Precip Events Conditions
12:15 AM 22.8 °F - 22.6 °F 99% 29.99 in 4.0 mi Calm Calm - N/A Snow Light Snow
12:35 AM 22.6 °F - 22.1 °F 98% 29.99 in 5.0 mi Calm Calm - N/A Snow Light Snow
1:15 AM 20.3 °F - 16.5 °F 85% 29.99 in 10.0 mi Calm Calm - N/A Snow Light Snow
1:35 AM 21.9 °F - 21.0 °F 96% 30.00 in 10.0 mi Calm Calm - N/A   Overcast
1:55 AM 21.2 °F - 20.8 °F 99% 30.00 in 10.0 mi Calm Calm - N/A   Mostly Cloudy
2:15 AM 21.0 °F - 20.7 °F 99% 30.01 in 10.0 mi Calm Calm - N/A   Scattered Clouds
2:35 AM 21.0 °F - 20.3 °F 97% 30.01 in 10.0 mi Calm Calm - N/A   Mostly Cloudy
2:55 AM 21.0 °F - 20.5 °F 98% 30.02 in 10.0 mi Calm Calm - N/A   Overcast
3:15 AM 20.7 °F - 20.3 °F 99% 30.02 in 10.0 mi Calm Calm - N/A   Overcast
3:35 AM 20.3 °F - 19.6 °F 97% 30.02 in 4.0 mi Calm Calm - N/A   Overcast
4:15 AM 19.2 °F - 18.3 °F 96% 30.02 in 10.0 mi Calm Calm - N/A   Scattered Clouds
4:35 AM 18.3 °F - 17.1 °F 95% 30.03 in 10.0 mi Calm Calm - N/A   Scattered Clouds
5:15 AM 17.6 °F - 16.2 °F 94% 30.04 in 10.0 mi Calm Calm - N/A   Clear
5:35 AM 17.4 °F - 14.9 °F 90% 30.04 in - Calm Calm - N/A   Unknown
6:15 AM 18.0 °F - 14.5 °F 86% 30.06 in - Calm Calm - N/A   Unknown
6:35 AM 18.0 °F - 14.4 °F 86% 30.06 in - Calm Calm - N/A   Unknown
6:55 AM 17.4 °F - 13.3 °F 84% 30.07 in - Calm Calm - N/A   Unknown
7:15 AM 17.6 °F - 11.8 °F 78% 30.07 in - Calm Calm - N/A   Clear
7:35 AM 15.8 °F - 11.1 °F 82% 30.08 in - Calm Calm - N/A   Clear
7:55 AM 17.6 °F - 10.9 °F 75% 30.08 in - Calm Calm - N/A   Clear
8:15 AM 17.4 °F - 12.6 °F 81% 30.09 in - Calm Calm - N/A   Clear
8:35 AM 18.5 °F - 14.4 °F 84% 30.09 in - Calm Calm - N/A   Unknown
8:55 AM 19.4 °F - 15.6 °F 85% 30.10 in 10.0 mi Calm Calm - N/A   Scattered Clouds
9:15 AM 19.2 °F - 16.3 °F 89% 30.11 in 5.0 mi Calm Calm - N/A Snow Light Snow
9:35 AM 20.3 °F - 16.7 °F 86% 30.11 in 10.0 mi Calm Calm - N/A Snow Light Snow
9:55 AM 20.3 °F - 16.7 °F 86% 30.12 in 10.0 mi Calm Calm - N/A   Scattered Clouds
10:15 AM 21.6 °F - 17.1 °F 83% 30.13 in 10.0 mi Calm Calm - N/A   Mostly Cloudy
10:35 AM 21.0 °F - 15.4 °F 79% 30.13 in 10.0 mi Calm Calm - N/A   Mostly Cloudy
10:55 AM 21.6 °F - 15.8 °F 78% 30.12 in 7.0 mi Calm Calm - N/A Snow Light Snow
11:15 AM 22.1 °F - 15.1 °F 74% 30.11 in 5.0 mi Calm Calm - N/A Snow Light Snow
11:35 AM 22.5 °F - 14.7 °F 72% 30.10 in 10.0 mi Calm Calm - N/A   Clear
12:15 PM 23.9 °F 18.0 °F 14.9 °F 69% 30.07 in 10.0 mi ENE 4.6 mph - N/A   Scattered Clouds
12:35 PM 24.3 °F 18.4 °F 15.4 °F 69% 30.06 in 10.0 mi ESE 4.6 mph - N/A   Mostly Cloudy
1:15 PM 24.6 °F - 15.3 °F 68% 30.06 in 4.0 mi Calm Calm - N/A Snow Light Snow
1:35 PM 23.9 °F - 15.3 °F 70% 30.06 in 7.0 mi Calm Calm - N/A Snow Light Snow
1:55 PM 24.8 °F - 15.3 °F 67% 30.06 in 10.0 mi Calm Calm - N/A   Overcast
2:15 PM 25.2 °F - 16.3 °F 69% 30.06 in 7.0 mi Calm Calm - N/A   Overcast
2:35 PM 24.8 °F 20.5 °F 17.2 °F 73% 30.06 in 3.0 mi North 3.5 mph - N/A Snow Light Snow
3:15 PM 24.3 °F - 17.1 °F 74% 30.06 in 10.0 mi Calm Calm - N/A   Mostly Cloudy
3:35 PM 24.4 °F - 17.2 °F 74% 30.07 in 10.0 mi Calm Calm - N/A   Scattered Clouds
3:55 PM 24.6 °F - 16.5 °F 71% 30.07 in 10.0 mi Calm Calm - N/A   Clear
4:15 PM 25.3 °F - 15.4 °F 66% 30.07 in 10.0 mi Calm Calm - N/A   Clear
4:35 PM 25.2 °F - 15.6 °F 67% 30.07 in 10.0 mi Calm Calm - N/A   Clear
4:55 PM 24.3 °F - 15.8 °F 70% 30.08 in 10.0 mi Calm Calm - N/A   Clear
5:15 PM 23.5 °F - 15.3 °F 71% 30.09 in 10.0 mi Calm Calm - N/A   Clear
5:35 PM 22.8 °F - 15.4 °F 73% 30.10 in 10.0 mi Calm Calm - N/A   Clear
5:55 PM 22.5 °F - 16.0 °F 76% 30.11 in 10.0 mi Calm Calm - N/A   Clear
6:15 PM 23.0 °F - 16.5 °F 76% 30.10 in - Calm Calm - N/A   Clear
6:35 PM 22.3 °F - 16.7 °F 79% 30.11 in - Calm Calm - N/A   Clear
6:55 PM 22.3 °F - 15.8 °F 76% 30.11 in - Calm Calm - N/A   Clear
7:15 PM 21.0 °F - 11.8 °F 68% 30.12 in - Calm Calm - N/A   Clear
7:35 PM 21.2 °F - 13.6 °F 73% 30.12 in - Calm Calm - N/A   Clear
7:55 PM 19.8 °F - 12.4 °F 73% 30.13 in - Calm Calm - N/A   Clear
8:15 PM 19.8 °F - 10.6 °F 68% 30.13 in - Calm Calm - N/A   Clear
8:35 PM 20.5 °F 12.8 °F 10.0 °F 64% 30.13 in - ENE 5.8 mph - N/A   Clear
8:55 PM 18.5 °F 13.3 °F 9.5 °F 68% 30.13 in - SSE 3.5 mph - N/A   Clear
9:15 PM 18.5 °F - 9.5 °F 68% 30.13 in - Calm Calm - N/A   Clear
9:35 PM 18.3 °F - 9.5 °F 68% 30.13 in - Calm Calm - N/A   Clear
9:55 PM 18.1 °F - 8.6 °F 66% 30.14 in - Calm Calm - N/A   Clear
10:15 PM 17.1 °F - 9.7 °F 73% 30.15 in - Calm Calm - N/A   Clear
10:35 PM 16.5 °F - 10.6 °F 77% 30.14 in - Calm Calm - N/A   Clear
10:55 PM 17.1 °F - 10.2 °F 75% 30.14 in - Calm Calm - N/A   Clear
11:15 PM 16.5 °F - 10.4 °F 77% 30.15 in - Calm Calm - N/A   Clear
11:35 PM 16.5 °F - 10.4 °F 77% 30.15 in - Calm Calm - N/A   Clear
11:55 PM 16.7 °F - 10.4 °F 76% 30.16 in - Calm Calm - N/A   Clear